Flag for Bangladesh Weather past 2 weeks in Dhaka, Bangladesh

Now
88 °F

Scattered clouds.


Feels Like: 93 °F
Forecast: 70 / 86 °F
Wind: 9 mph from West

Location: Chittagong Patenga

Current Time: Mar 3, 2015 at 2:11:05 PM

Latest Report: Mar 3, 2015 at 12:50 PM


Visibility: 2 mi

Pressure: 29.83 "Hg

Humidity: 55%

Dew point: 70 °F

Location of DhakaLocation

Historic Weather in Dhaka — Graph

°F

Dhaka temperature yesterday

Maximum temperature yesterday: 91 °F (at 2:50 PM)
Minimum temperature yesterday: 72 °F (at 5:50 AM)
Average temperature yesterday: 80 °F

Past Weeks' High & Low Weather Summary

 TemperatureHumidityPressure
High91 °F (Mar 2, 2:50 PM)100% (Mar 2, 5:50 AM)30.01 "Hg (Mar 2, 5:50 AM)
Low64 °F (Feb 17, 7:50 AM)37% (Feb 17, 11:50 AM)29.77 "Hg (Feb 25, 1:50 PM)
Average78 °F71%29.87 "Hg
* Reported Feb 16 12:50 PM — Mar 3 12:50 PM, Dhaka, Weather by CustomWeather, © 2015

Note: Actual official high and low records may vary slightly from our data, if they occured in-between our weather recording intervals... More about our weather records

Advertising

Dhaka weather history for previous 24 hours

 ConditionsComfort  
Time TempWeatherWind HumidityBarometerVisibility
12:50 PM
Tue, Mar 3
88 °FScattered clouds.9 mph55%29.83 "Hg2 mi
11:50 AM86 °FHaze.7 mph59%29.86 "Hg2 mi
10:50 AM84 °FHaze.No wind62%29.89 "Hg2 mi
9:50 AM81 °FHaze.No wind70%29.89 "Hg2 mi
8:50 AM79 °FHaze.No wind74%29.89 "Hg2 mi
7:50 AM73 °FHaze.7 mph89%29.83 "Hg1 mi
6:50 AM73 °FFog.No wind94%29.83 "Hg1 mi
11:50 PM
Mon, Mar 2
77 °FHaze.7 mph89%29.86 "Hg2 mi
10:50 PM77 °FHaze.7 mph89%29.89 "Hg2 mi
9:50 PM79 °FHaze.5 mph89%29.89 "Hg2 mi
8:50 PM79 °FHaze.6 mph89%29.86 "Hg2 mi
7:50 PM79 °FHaze.6 mph79%29.86 "Hg2 mi
6:50 PM82 °FHaze.6 mph79%29.83 "Hg2 mi
5:50 PM82 °FHaze.6 mph79%29.83 "Hg2 mi
4:50 PM90 °FHaze.9 mph49%29.80 "Hg2 mi
3:50 PM90 °FHaze.6 mph49%29.80 "Hg2 mi
2:50 PM91 °FHaze.9 mph46%29.83 "Hg2 mi
Weather by CustomWeather, © 2015

See weather overviewHow to use our weather pages